Tracking 21607 objects as of 23-Oct-2020
HD Live streaming from Space Station
objects crossing your sky now

GORIZONT 2

Track GORIZONT 2 now!
GORIZONT 2 is classified as:


NORAD ID: 11440
Int'l Code: 1979-062A
Perigee: 35,770.1 km
Apogee: 35,801.8 km
Inclination: 10.6 °
Period: 1,435.7 minutes
Semi major axis: 42156 km
RCS: 3.981 m2 (large)
Launch date: July 5, 1979
Source: Commonwealth of Independent States (former USSR) (CIS)
Launch site: TYURATAM MISSILE AND SPACE COMPLEX (TTMTR)
aabbcc
Your satellite tracking list
Your tracking list is empty




NASA's NSSDC Master Catalog

Two Line Element Set (TLE):
1 11440U 79062A   20297.12229267 -.00000033  00000-0  00000+0 0  9991
2 11440  10.6383 309.0023 0003761 295.4541 257.0348  1.00299579117322
Source of the keplerian elements: AFSPC